Weather in Zadnee

Russia / Vologda Oblast     59˚46′14″N   39˚41′28″E
temp.,
°C
wind,
m/s
gust,
m/s
humid.,
%
clouds,
%
prec.,
mm/h
press.,
hPa
HPBL,
m
16 january, sat
sat1600:00−22˚ne2596100 0.0 1016168
03:00−21˚nne3795100 0.0 1016212
06:00−21˚nne4896100 0.0 1014258
09:00−22˚nne4995100 0.0 1013289
12:00−22˚n499496 0.0 1013284
15:00−21˚n5129390 0.0 1012349
18:00−21˚nne5149496 0.0 1010350
21:00−22˚n5129490 0.0 1011335
17 january, sun
sun1700:00−23˚n4119578 0.0 1011269
03:00−23˚n399553 0.0 1012236
06:00−24˚n24967 0.0 101296
09:00−25˚nnw22977 0.0 101323
12:00−21˚wnw12949 0.0 101491
15:00−20˚w12947 0.0 101520
18:00−21˚wsw229935 0.0 101521
21:00−21˚sw239960 0.0 101534
18 january, mon
mon1800:00−19˚sw249999 0.1 101497
03:00−17˚sw259799 0.1 1014143
06:00−16˚sw259799 0.2 1013138
09:00−16˚sw239898 0.3 101465
12:00−14˚sw239796 0.1 1014128
15:00−12˚sw139796 0.2 1014142
18:00−14˚w129782 0.1 101520
21:00−14˚sw119783 0.2 101620
19 january, tue
tue1900:00−16˚s119890 0.1 101620
03:00−15˚ssw119792 0.2 101620
06:00−15˚sse129799 0.1 101622
09:00−16˚sse1297100 0.1 101620
12:00−14˚sse129699 0.1 1016113
15:00−14˚sse129793 0.1 101524
18:00−16˚sse129897 0.1 101620
21:00−16˚s229898 0.1 101621
20 january, wed
wed2000:00−16˚ssw129899 0.1 101621
03:00−16˚ssw229899 0.1 101724
06:00−15˚sw2298100 0.1 101736
09:00−17˚sw239897 0.1 101731
12:00−14˚sw269527 0.0 1017207
15:00−14˚sw279652 0.0 1017229
18:00−17˚sw239876 0.0 101759
21:00−18˚sw239875 0.0 101744